Regional Weather Roundup
Issued by NWS

Home | Current Version | Previous Version | Text Only | Print | Product List | Glossary Off
Versions: 1 2 3 4 5 6 7 8 9 10 11 12 13 14 15 16 17 18 19 20 21 22 23 24 25 26 27 28 29 30 31 32 33 34 35 36 37 38 39 40 41 42 43 44 45 46 47 48 49 50

000
ASUS43 KTOP 171908
RWRKS

WEATHER ROUNDUP FOR KANSAS
NATIONAL WEATHER SERVICE GOODLAND KS
100 PM CST TUE JAN 17 2017

NOTE:  "FAIR" INDICATES FEW OR NO CLOUDS BELOW 12,000 FEET WITH NO
SIGNIFICANT WEATHER AND/OR OBSTRUCTIONS TO VISIBILITY.

KSZ001>006-013>018-027>032-041>047-172000-
NORTHWEST KANSAS

CITY           SKY/WX    TMP DP  RH WIND       PRES   REMARKS
GOODLAND       SUNNY     42  30  62 W6        30.07F
HAYS           SUNNY     41  31  67 W5        30.11F
HILL CITY      SUNNY     43  30  60 NW8       30.10F
RUSSELL        SUNNY     40  31  70 W6        30.10F
$$

KSZ061>065-074>080-084>089-172000-
SOUTHWEST KANSAS

CITY           SKY/WX    TMP DP  RH WIND       PRES   REMARKS
DODGE CITY     SUNNY     44  33  65 W8        30.13F
ELKHART          N/A     41  28  60 SW7         N/A
GARDEN CITY    SUNNY     42  31  64 W9        30.12F
GREAT BEND     MOSUNNY   42  31  64 W7        30.13F
LIBERAL        SUNNY     48  34  57 SW5       30.14F
PRATT          SUNNY     43  29  56 NW8       30.13F
$$

KSZ066>073-081>083-090>101-172000-
SOUTHEAST KANSAS

CITY           SKY/WX    TMP DP  RH WIND       PRES   REMARKS
CHANUTE        CLOUDY    39  34  82 NW6       30.13F
COFFEYVILLE    CLOUDY    42  35  76 NW7       30.16F
HUTCHINSON     SUNNY     44  30  57 W7        30.13F
MEDICINE LODGE   N/A     49  30  48 W8        30.13F
NEWTON         SUNNY     44  34  67 W9        30.12F
PARSONS        CLOUDY    40  35  83 NW8       30.15F
WICHITA INTL   MOSUNNY   46  31  55 NW9       30.13F
WICHITA JABRA  SUNNY     45  32  60 W9        30.12F
WICHITA MCCONL SUNNY     46  29  51 W6        30.12F
WINFIELD       SUNNY     46  34  62 W8        30.15F
$$

KSZ007>012-019>026-033>040-048>060-102>105-172000-
NORTHEAST KANSAS

CITY           SKY/WX    TMP DP  RH WIND       PRES   REMARKS
CONCORDIA      SUNNY     36  29  75 W7        30.10F
EMPORIA        SUNNY     45  35  68 NW9       30.09F
LAWRENCE       CLOUDY    39  36  89 W6        30.11F
MANHATTAN      CLOUDY    39  29  67 W8        30.11F
MARYSVILLE     SUNNY     36  30  80 W6        30.09F
OLATHE IND     CLOUDY    37  34  89 W10       30.10F WCI  30
OLATHE EXE     CLOUDY    36  35  96 W6G18     30.10S
SALINA         MOSUNNY   43  30  60 NW6       30.14F
TOPEKA BILLARD CLOUDY    40  34  79 W8        30.11F
TOPEKA FORBES  CLOUDY    43  36  76 W8        30.10F
$$



USA.gov is the U.S. government's official web portal to all federal, state and local government web resources and services.